1529154000.81,32445,18.06,74066.3,12.81,5.59,5.73,0,*4B
1529154002.02,32446,18.06,74064.5,12.83,5.99,6.21,0,*42
1529154003.22,32447,18.06,74066.5,12.81,6.13,6.29,0,*48
1529154004.48,32448,18.06,74064.5,12.83,6.39,6.65,0,*45
1529154005.71,32449,18.06,74066.0,12.83,6.33,6.39,0,*47
1529154006.91,32450,18.06,74064.8,12.85,5.55,5.67,0,*42
1529154008.15,32451,18.06,74064.0,12.83,5.89,5.99,0,*45
1529154009.37,32452,18.06,74064.8,12.83,6.29,6.33,0,*4C
1529154010.63,32453,18.06,74064.3,12.83,6.39,6.43,0,*4B
1529154011.83,32454,18.06,74066.5,12.83,6.21,6.29,0,*49
1529154013.02,32455,18.06,74066.0,12.85,6.03,6.21,0,*46
1529154014.2,32456,18.06,74066.5,12.85,5.07,5.11,0,*42
1529154015.38,32457,18.06,74064.3,12.85,5.07,5.11,0,*43
1529154016.6,32458,18.06,74064.8,12.85,4.97,5.07,0,*43
1529154017.82,32459,18.06,74066.3,12.83,5.15,5.27,0,*4D
1529154019.08,32460,18.06,74064.3,12.83,4.93,5.05,0,*48
1529154020.26,32461,18.06,74066.3,12.81,4.19,4.23,0,*4C
1529154021.47,32462,18.06,74066.3,12.81,3.97,4.15,0,*4B
1529154022.65,32463,18.06,74066.5,12.77,3.93,4.11,0,*43
1529154023.87,32464,18.06,74066.8,12.75,4.49,4.59,0,*4A
1529154025.1,32465,18.06,74068.0,12.75,4.59,4.81,0,*4F
1529154026.31,32466,18.06,74068.0,12.73,3.97,4.15,0,*42
1529154027.52,32467,18.06,74066.3,12.69,4.53,4.75,0,*41
1529154028.79,32468,18.06,74070.0,12.67,4.79,4.93,0,*40
1529154029.99,32469,18.06,74068.3,12.69,5.15,5.27,0,*4A
1529154031.2,32470,18.06,74064.0,12.69,4.79,4.85,0,*40
1529154032.39,32471,18.06,74064.5,12.69,4.23,4.41,0,*46
1529154033.63,32472,18.06,74070.0,12.67,5.01,5.11,0,*4E
1529154034.81,32473,18.06,74066.8,12.65,5.29,5.41,0,*42
1529154036.03,32474,18.06,74064.8,12.65,5.41,5.55,0,*4E
1529154037.22,32475,18.06,74066.3,12.65,5.11,5.33,0,*4A
1529154038.4,32476,18.06,74064.8,12.65,5.45,5.67,0,*49
1529154039.64,32477,18.06,74070.3,12.65,5.89,6.13,0,*48
1529154040.87,32478,18.06,74064.3,12.65,5.55,5.77,0,*47
1529154042.1,32479,18.06,74064.3,12.67,5.49,5.55,0,*49
1529154043.3,32480,18.06,74066.3,12.69,5.71,5.93,0,*40
1529154044.53,32481,18.06,74068.0,12.67,5.45,5.55,0,*42
1529154045.74,32482,18.06,74062.3,12.67,5.45,5.63,0,*44
1529154046.97,32483,18.06,74066.5,12.67,5.27,5.37,0,*40
1529154048.2,32484,18.06,74070.5,12.67,5.37,5.55,0,*42
1529154049.43,32485,18.06,74066.8,12.67,5.71,5.81,0,*48
1529154050.67,32486,18.06,74068.5,12.67,6.03,6.13,0,*45
1529154051.89,32487,18.06,74066.8,12.69,6.25,6.43,0,*4B
1529154053.1,32488,18.06,74070.5,12.69,6.03,6.17,0,*41
1529154054.32,32489,18.06,74066.0,12.69,6.03,6.13,0,*44
1529154055.52,32490,18.06,74064.8,12.69,6.13,6.25,0,*48
1529154056.73,32491,18.06,74064.8,12.69,5.95,6.17,0,*45
1529154057.97,32492,18.06,74064.5,12.73,6.17,6.35,0,*44
1529154059.21,32493,18.06,74070.0,12.73,6.17,6.43,0,*44
1529154060.39,32494,18.06,74064.0,12.73,6.11,6.29,0,*49
1529154061.6,32495,18.06,74068.0,12.75,6.11,6.33,0,*45
1529154062.8,32496,18.06,74064.0,12.79,6.07,6.29,0,*46
1529154064.02,32497,18.06,74066.5,12.77,5.77,5.93,0,*4F
1529154065.26,32498,18.06,74062.0,12.79,6.03,6.17,0,*41
1529154066.46,32499,18.06,74066.3,12.77,5.77,5.99,0,*4B
1529154067.65,32500,18.06,74064.3,12.77,5.99,6.21,0,*4A
1529154068.83,32501,18.06,74066.3,12.77,5.99,6.11,0,*48
1529154070.06,32502,18.06,74064.5,12.79,5.71,5.93,0,*4A
1529154071.28,32503,18.06,74064.0,12.77,5.77,5.93,0,*43
1529154072.46,32504,18.06,74066.0,12.77,5.99,6.11,0,*4D
1529154073.71,32505,18.06,74064.8,12.79,5.85,6.13,0,*4D
1529154074.92,32506,18.06,74064.0,12.79,5.95,6.07,0,*4A
1529154076.15,32507,18.06,74064.8,12.79,5.81,6.03,0,*4A
1529154077.35,32508,18.06,74066.3,12.79,6.07,6.25,0,*4C
1529154078.61,32509,18.06,74066.3,12.79,5.73,5.85,0,*44
1529154079.83,32510,18.06,74066.0,12.79,5.85,6.07,0,*4C
1529154081.06,32511,18.06,74068.5,12.79,5.85,6.03,0,*49
1529154082.29,32512,18.06,74064.0,12.79,5.73,5.95,0,*4F
1529154083.52,32513,18.06,74062.0,12.79,6.13,6.29,0,*4F
1529154084.78,32514,18.06,74064.3,12.79,6.17,6.35,0,*41
1529154086.01,32515,18.06,74064.3,12.83,6.17,6.33,0,*43
1529154087.25,32516,18.06,74060.3,12.81,5.93,6.13,0,*4F
1529154088.5,32517,18.06,74064.5,12.83,5.85,5.89,0,*4B
1529154089.72,32518,18.06,74062.5,12.83,5.51,5.71,0,*4A
1529154090.93,32519,18.06,74062.3,12.81,5.71,5.85,0,*40
1529154092.13,32520,18.06,74062.3,12.81,5.73,5.95,0,*49
1529154093.37,32521,18.06,74062.5,12.83,5.89,6.11,0,*40
1529154094.58,32522,18.06,74064.0,12.85,5.89,6.03,0,*46
1529154095.76,32523,18.06,74060.8,12.85,5.99,6.21,0,*46
1529154096.99,32524,18.06,74060.0,12.83,6.07,6.17,0,*46
1529154098.22,32525,18.06,74060.5,12.83,5.73,5.95,0,*4E
1529154099.44,32526,18.06,74066.0,12.83,5.63,5.77,0,*40
1529154100.67,32527,18.06,74066.8,12.83,5.71,5.73,0,*46
1529154101.89,32528,18.06,74064.0,12.83,5.63,5.73,0,*4A
1529154103.1,32529,18.06,74064.3,12.85,5.81,6.03,0,*45
1529154104.31,32530,18.06,74066.8,12.85,5.81,6.03,0,*4D
1529154105.49,32531,18.06,74062.8,12.85,6.03,6.21,0,*45
1529154106.72,32532,18.06,74066.8,12.87,5.85,6.07,0,*4D
1529154107.92,32533,18.06,74062.8,12.85,5.51,5.63,0,*46
1529154109.14,32534,18.06,74060.3,12.85,5.73,5.89,0,*45
1529154110.36,32535,18.06,74062.3,12.85,5.77,5.93,0,*4B
1529154111.57,32536,18.06,74064.3,12.85,5.67,5.89,0,*42
1529154112.77,32537,18.06,74064.0,12.85,5.89,6.11,0,*41
1529154113.98,32538,18.06,74064.3,12.85,5.73,6.03,0,*48
1529154115.16,32539,18.06,74066.8,12.85,5.19,5.41,0,*40
1529154116.39,32540,18.06,74064.5,12.85,5.73,5.93,0,*4D
1529154117.59,32541,18.06,74068.3,12.85,4.85,5.05,0,*4B
1529154118.77,32542,18.06,74064.5,12.85,4.53,4.85,0,*4A
1529154120.03,32543,18.06,74066.0,12.83,4.67,4.79,0,*49
1529154121.26,32544,18.06,74066.8,12.83,4.89,5.05,0,*44
1529154122.46,32545,18.06,74064.0,12.81,4.63,4.89,0,*46
1529154123.7,32546,18.06,74064.5,12.81,4.97,5.27,0,*4B
1529154124.89,32547,18.06,74064.0,12.81,5.33,5.59,0,*4C
1529154126.11,32548,18.06,74066.0,12.81,5.55,5.81,0,*46
1529154127.29,32549,18.06,74064.5,12.81,5.71,6.07,0,*4C
1529154128.52,32550,18.06,74066.5,12.81,5.85,6.17,0,*4E
1529154129.77,32551,18.06,74068.3,12.83,5.85,6.17,0,*4D
1529154131.0,32552,18.06,74064.3,12.83,5.73,5.95,0,*4E
1529154132.2,32553,18.06,74064.5,12.85,5.63,5.93,0,*4E
1529154133.41,32554,18.06,74070.3,12.83,5.71,5.99,0,*46
1529154134.63,32555,18.06,74064.5,12.83,5.73,6.07,0,*41
1529154135.86,32556,18.06,74066.3,12.83,5.49,5.73,0,*4B
1529154137.02,32557,18.06,74068.0,12.85,5.29,5.45,0,*4F
1529154138.26,32558,18.06,74068.0,12.85,4.93,5.05,0,*44
1529154139.44,32559,18.06,74070.3,12.85,4.37,4.53,0,*49
1529154140.65,32560,18.06,74070.3,12.81,4.19,4.31,0,*4F
1529154141.83,32561,18.06,74066.5,12.81,4.19,4.23,0,*4D
1529154143.04,32562,18.06,74066.0,12.81,4.45,4.75,0,*44
1529154144.25,32563,18.06,74062.8,12.81,4.63,4.85,0,*4E
1529154145.46,32564,18.06,74066.0,12.77,4.15,4.31,0,*4E
1529154146.67,32565,18.06,74064.3,12.77,4.49,4.75,0,*46
1529154147.9,32566,18.06,74064.0,12.79,4.53,4.67,0,*43
1529154149.13,32567,18.06,74064.0,12.75,4.63,4.81,0,*45
1529154150.32,32568,18.06,74064.5,12.73,4.27,4.37,0,*41
1529154151.53,32569,18.06,74066.3,12.73,4.67,4.81,0,*49
1529154152.77,32570,18.06,74066.5,12.73,4.59,4.71,0,*43
1529154154.0,32571,18.06,74064.5,12.75,4.63,4.85,0,*46
1529154155.19,32572,18.06,74066.3,12.73,5.07,5.37,0,*48
1529154156.39,32573,18.06,74064.8,12.73,3.97,4.15,0,*47
1529154157.6,32574,18.06,74062.8,12.73,4.49,4.79,0,*4E
1529154158.84,32575,18.06,74066.8,12.69,4.93,5.27,0,*49
1529154160.01,32576,18.06,74064.0,12.69,5.49,5.71,0,*4F
1529154161.19,32577,18.06,74064.8,12.69,5.49,5.63,0,*4D
1529154162.38,32578,18.06,74064.3,12.73,5.41,5.63,0,*41
1529154163.59,32579,18.06,74064.5,12.73,4.97,5.15,0,*4B
1529154164.83,32580,18.06,74066.3,12.75,5.01,5.23,0,*40
1529154166.02,32581,18.06,74066.8,12.73,5.19,5.37,0,*4B
1529154167.23,32582,18.06,74068.3,12.73,4.89,5.05,0,*41
1529154168.44,32583,18.06,74066.3,12.75,5.11,5.33,0,*43
1529154169.65,32584,18.06,74068.8,12.73,4.49,4.71,0,*49
1529154170.87,32585,18.06,74066.3,12.73,4.71,4.89,0,*44
1529154172.08,32586,18.06,74066.3,12.73,4.57,4.71,0,*44
1529154173.32,32587,18.06,74068.5,12.67,4.67,4.85,0,*48
1529154174.58,32588,18.06,74066.5,12.67,4.79,4.93,0,*4F
1529154175.8,32589,18.06,74066.5,12.67,5.11,5.33,0,*4A
1529154177.04,32590,18.06,74062.8,12.67,4.93,5.15,0,*4D
1529154178.28,32591,18.06,74064.3,12.69,4.75,4.93,0,*45
1529154179.48,32592,18.06,74064.3,12.67,5.15,5.45,0,*45
1529154180.66,32593,18.06,74066.5,12.69,5.45,5.71,0,*48
1529154181.87,32594,18.06,74066.0,12.67,5.33,5.59,0,*4A
1529154183.05,32595,18.06,74066.0,12.69,5.45,5.63,0,*4D
1529154184.24,32596,18.06,74066.3,12.73,5.63,5.95,0,*48
1529154185.48,32597,18.06,74066.3,12.75,5.51,5.81,0,*4B
1529154186.69,32598,18.06,74066.0,12.73,5.49,5.81,0,*4B
1529154187.92,32599,18.06,74064.8,12.73,5.51,5.77,0,*4A
1529154189.12,32600,18.06,74066.5,12.75,5.41,5.63,0,*4B
1529154190.34,32601,18.06,74066.5,12.73,4.37,4.71,0,*4E
1529154191.6,32602,18.06,74066.8,12.75,4.75,4.97,0,*45
1529154192.81,32603,18.06,74064.8,12.73,5.27,5.59,0,*47
1529154194.02,32604,18.06,74066.8,12.75,5.67,6.03,0,*4E
1529154195.25,32605,18.06,74066.5,12.75,5.63,5.81,0,*42
1529154196.45,32606,18.06,74070.0,12.77,5.67,5.89,0,*4F
1529154197.68,32607,18.06,74066.3,12.79,5.67,5.93,0,*4B
1529154198.92,32608,18.06,74066.0,12.79,5.73,6.03,0,*4B
1529154200.14,32609,18.06,74066.8,12.79,5.59,5.85,0,*4F
1529154201.35,32610,18.06,74068.3,12.81,5.73,6.03,0,*45
1529154202.58,32611,18.06,74068.5,12.83,5.63,5.85,0,*4A
1529154203.82,32612,18.06,74072.3,12.83,4.45,4.71,0,*46
1529154205.06,32613,18.06,74066.8,12.81,4.75,5.01,0,*40
1529154206.29,32614,18.06,74066.5,12.81,4.67,4.97,0,*4A
1529154207.5,32615,18.06,74066.0,12.83,5.19,5.49,0,*43
1529154208.74,32616,18.06,74066.8,12.83,5.01,5.19,0,*4C
1529154209.92,32617,18.06,74068.0,12.81,5.15,5.49,0,*4F
1529154211.11,32618,18.06,74068.5,12.85,5.45,5.73,0,*48
1529154212.3,32619,18.06,74064.5,12.85,5.45,5.73,0,*49
1529154213.55,32620,18.06,74068.5,12.87,5.55,5.81,0,*4D
1529154214.75,32621,18.06,74070.8,12.87,5.45,5.71,0,*42
1529154216.01,32622,18.06,74070.5,12.87,4.67,5.01,0,*47
1529154217.19,32623,18.06,74068.0,12.85,4.11,4.53,0,*43
1529154218.38,32624,18.06,74070.3,12.85,4.37,4.85,0,*4B
1529154219.59,32625,18.06,74070.8,12.85,4.15,4.63,0,*42
1529154220.82,32626,18.06,74068.5,12.87,4.75,5.15,0,*45
1529154222.02,32627,18.06,74068.5,12.87,4.33,4.89,0,*42
1529154223.23,32628,18.06,74070.0,12.87,4.41,4.85,0,*44
1529154224.43,32629,18.06,74068.8,12.87,3.81,4.27,0,*46
1529154225.61,32630,18.06,74070.8,12.85,3.89,4.23,0,*40
1529154226.82,32631,18.06,74070.0,12.85,3.89,4.31,0,*42
1529154228.02,32632,18.06,74070.3,12.85,4.31,4.81,0,*4E
1529154229.22,32633,18.06,74068.8,12.85,4.15,4.59,0,*4C
1529154230.46,32634,18.06,74068.5,12.85,4.05,4.59,0,*4A
1529154231.68,32635,18.06,74070.0,12.87,4.75,5.37,0,*47
1529154232.9,32636,18.06,74072.8,12.85,4.71,5.19,0,*4E
1529154234.1,32637,18.06,74064.3,12.87,4.53,4.89,0,*45
1529154235.32,32638,18.06,74068.0,12.85,4.37,4.75,0,*49
1529154236.55,32639,18.06,74070.3,12.87,4.15,4.63,0,*4D
1529154237.76,32640,18.06,74066.5,12.85,4.23,4.63,0,*44
1529154238.94,32641,18.06,74066.5,12.85,3.55,3.81,0,*48
1529154240.14,32642,18.06,74066.5,12.85,4.05,4.49,0,*4A
1529154241.35,32643,18.06,74066.0,12.85,4.59,5.07,0,*49
1529154242.59,32644,18.06,74066.0,12.85,4.31,4.75,0,*44
1529154243.8,32645,18.06,74070.0,12.85,5.05,5.41,0,*45
1529154244.99,32646,18.06,74070.0,12.85,5.45,5.77,0,*47
1529154246.21,32647,18.06,74068.5,12.87,5.27,5.71,0,*46
1529154247.44,32648,18.06,74070.5,12.87,4.67,5.15,0,*4E
1529154248.63,32649,18.06,74068.5,12.89,3.93,4.33,0,*48
1529154249.81,32650,18.06,74068.5,12.89,3.85,4.27,0,*42
1529154251.02,32651,18.06,74070.0,12.87,4.15,4.53,0,*40
1529154252.25,32652,18.06,74068.3,12.87,4.85,5.27,0,*48
1529154253.46,32653,18.06,74070.8,12.89,4.27,4.63,0,*4E
1529154254.67,32654,18.06,74064.8,12.89,4.41,4.79,0,*42
1529154255.9,32655,18.06,74070.3,12.87,4.45,4.79,0,*49
1529154257.12,32656,18.06,74072.3,12.85,4.37,4.71,0,*45
1529154258.32,32657,18.06,74070.8,12.87,4.45,4.85,0,*48
1529154259.53,32658,18.06,74066.8,12.87,4.53,4.85,0,*40
1529154260.76,32659,18.06,74070.3,12.87,4.53,4.97,0,*42
1529154261.99,32660,18.06,74066.8,12.87,4.85,5.27,0,*49
1529154263.23,32661,18.06,74064.5,12.89,4.63,4.97,0,*44
1529154264.42,32662,18.06,74068.8,12.89,4.07,4.45,0,*4A
1529154265.65,32663,18.06,74064.5,12.87,4.05,4.27,0,*43
1529154266.86,32664,18.06,74066.5,12.89,4.75,5.11,0,*49
1529154268.09,32665,18.06,74066.8,12.87,5.23,5.55,0,*44
1529154269.31,32666,18.06,74070.5,12.87,5.27,5.49,0,*4E
1529154270.55,32667,18.06,74068.0,12.91,4.37,4.79,0,*4A
1529154271.74,32668,18.06,74068.5,12.89,4.89,5.23,0,*47
1529154272.99,32669,18.06,74068.3,12.91,5.51,5.73,0,*4E
1529154274.22,32670,18.06,74068.8,12.91,4.45,4.67,0,*46
1529154275.43,32671,18.06,74068.3,12.95,4.23,4.59,0,*4E
1529154276.6,32672,18.06,74068.3,12.95,4.49,4.81,0,*44
1529154277.84,32673,18.06,74066.0,12.95,4.59,4.93,0,*47
1529154279.09,32674,18.06,74064.3,12.97,4.37,4.71,0,*46
1529154280.3,32675,18.06,74066.0,12.97,5.15,5.45,0,*40
1529154281.51,32676,18.06,74068.0,12.97,4.11,4.27,0,*43
1529154282.74,32677,18.06,74068.5,12.97,4.01,4.27,0,*43
1529154283.95,32678,18.06,74068.5,12.95,4.37,4.59,0,*42
1529154285.18,32679,18.06,74064.3,12.97,4.01,4.23,0,*49
1529154286.39,32680,18.06,74070.8,12.95,5.05,5.33,0,*48
1529154287.63,32681,18.06,74066.8,12.95,4.63,5.05,0,*4D
1529154288.81,32682,18.06,74064.3,12.95,4.27,4.49,0,*47
1529154290.05,32683,18.06,74066.3,12.97,5.23,5.55,0,*4D
1529154291.23,32684,18.06,74066.0,12.95,5.41,5.67,0,*4D
1529154292.43,32685,18.06,74068.3,12.99,4.89,5.11,0,*44
1529154293.67,32686,18.06,74070.0,12.99,4.63,5.01,0,*42
1529154294.86,32687,18.06,74070.3,12.99,4.15,4.53,0,*44
1529154296.13,32688,18.06,74070.5,13.01,4.31,4.63,0,*4E
1529154297.32,32689,18.06,74070.5,12.99,3.85,4.19,0,*4A
1529154298.52,32690,18.06,74070.3,12.99,3.97,4.19,0,*41
1529154299.71,32691,18.06,74070.3,12.99,3.93,4.27,0,*49
1529154300.89,32692,18.06,74068.0,12.99,3.81,4.19,0,*44
1529154302.11,32693,18.06,74068.8,12.99,4.45,4.97,0,*4C
1529154303.32,32694,18.06,74066.3,12.97,4.41,4.85,0,*42
1529154304.56,32695,18.06,74068.0,12.97,4.93,5.29,0,*4B
1529154305.8,32696,18.06,74068.0,12.97,4.63,5.07,0,*4B
1529154306.99,32697,18.06,74064.8,12.99,5.11,5.59,0,*4B
1529154308.21,32698,18.06,74066.3,12.99,4.67,5.11,0,*48
1529154309.45,32699,18.06,74064.8,13.01,4.63,5.11,0,*4D
1529154310.66,32700,18.06,74066.3,13.01,5.49,5.71,0,*43
1529154311.88,32701,18.06,74066.0,13.01,5.71,6.03,0,*4F
1529154313.12,32702,18.06,74068.3,13.05,5.89,6.21,0,*4F
1529154314.35,32703,18.06,74068.0,13.05,5.51,5.45,0,*4A
1529154315.56,32704,18.06,74068.8,13.07,4.75,5.19,0,*41
1529154316.78,32705,18.13,74068.8,13.07,4.93,5.15,0,*44
1529154318.01,32706,18.06,74068.5,13.09,5.23,5.55,0,*47
1529154319.22,32707,18.06,74064.5,13.07,4.97,5.29,0,*4D
1529154320.44,32708,18.06,74068.3,13.07,4.53,4.93,0,*4A
1529154321.63,32709,18.06,74068.5,13.07,4.81,5.19,0,*47
1529154322.84,32710,18.06,74068.8,13.07,4.27,4.63,0,*4F
1529154324.05,32711,18.06,74070.8,13.07,4.33,4.59,0,*42
1529154325.25,32712,18.06,74068.0,13.07,4.11,4.37,0,*49
1529154326.45,32713,18.06,74068.3,13.07,4.01,4.27,0,*48
1529154327.64,32714,18.06,74068.0,13.07,4.15,4.53,0,*49
1529154328.86,32715,18.06,74068.5,13.07,4.37,4.75,0,*4C
1529154330.12,32716,18.06,74070.3,13.05,4.63,5.05,0,*4A
1529154331.37,32717,18.13,74072.0,13.03,4.71,5.01,0,*4A
1529154332.56,32718,18.06,74070.3,13.03,4.19,4.57,0,*49
1529154333.77,32719,18.06,74068.3,13.03,4.41,4.71,0,*41
1529154335.02,32720,18.06,74068.8,13.05,4.33,4.75,0,*4C
1529154336.26,32721,18.06,74066.0,13.05,4.53,4.97,0,*47
1529154337.53,32722,18.06,74070.3,13.05,4.63,4.93,0,*43
1529154338.71,32723,18.06,74070.0,13.07,4.23,4.45,0,*4F
1529154339.96,32724,18.06,74066.8,13.05,4.37,4.71,0,*48
1529154341.23,32725,18.06,74068.5,13.05,4.59,4.93,0,*4D
1529154342.48,32726,18.06,74066.5,13.05,4.37,4.71,0,*4A
1529154343.72,32727,18.06,74066.5,13.05,4.27,4.59,0,*40
1529154344.96,32728,18.13,74072.0,13.05,4.27,4.59,0,*4F
1529154346.17,32729,18.06,74068.5,13.05,4.11,4.33,0,*47
1529154347.36,32730,18.06,74070.0,13.03,3.89,4.23,0,*4E
1529154348.54,32731,18.06,74064.0,13.03,4.23,4.49,0,*44
1529154349.73,32732,18.06,74068.8,13.03,4.07,4.33,0,*4C
1529154350.93,32733,18.06,74064.5,13.03,4.89,5.23,0,*4B
1529154352.17,32734,18.06,74066.5,13.03,4.59,5.01,0,*41
1529154353.38,32735,18.06,74066.3,13.03,4.41,4.67,0,*48
1529154354.6,32736,18.06,74064.0,13.03,5.01,5.29,0,*45
1529154355.81,32737,18.06,74064.3,13.01,4.53,4.85,0,*47
1529154357.02,32738,18.06,74066.5,13.01,5.07,5.37,0,*40
1529154358.22,32739,18.06,74070.3,13.03,5.27,5.41,0,*40
1529154359.43,32740,18.13,74072.0,13.03,4.79,5.11,0,*41
1529154360.64,32741,18.06,74068.8,13.03,4.45,4.79,0,*40
1529154361.83,32742,18.06,74070.0,13.03,4.33,4.57,0,*4E
1529154363.05,32743,18.06,74068.8,13.01,4.27,4.53,0,*4C
1529154364.23,32744,18.13,74070.3,12.99,3.85,4.15,0,*46
1529154365.47,32745,18.06,74070.8,13.01,4.41,4.67,0,*4D
1529154366.68,32746,18.06,74068.5,13.01,4.19,4.37,0,*46
1529154367.89,32747,18.06,74070.5,12.99,3.97,4.27,0,*47
1529154369.11,32748,18.06,74070.0,12.99,4.31,4.45,0,*47
1529154370.29,32749,18.06,74066.5,12.95,3.89,4.11,0,*4F
1529154371.47,32750,18.13,74068.8,12.95,4.27,4.49,0,*49
1529154372.68,32751,18.06,74064.5,12.95,5.23,5.51,0,*45
1529154373.92,32752,18.06,74066.3,12.97,5.93,6.11,0,*48
1529154375.18,32753,18.13,74070.8,12.97,5.89,6.13,0,*40
1529154376.43,32754,18.13,74068.5,12.97,6.21,6.35,0,*42
1529154377.65,32755,18.06,74068.5,13.01,6.03,6.25,0,*4C
1529154378.91,32756,18.06,74066.3,13.01,6.17,6.47,0,*4E
1529154380.16,32757,18.13,74070.8,13.05,6.21,6.35,0,*4B
1529154381.41,32758,18.06,74070.0,13.05,5.51,5.73,0,*41
1529154382.65,32759,18.13,74072.0,13.05,4.53,4.63,0,*43
1529154383.87,32760,18.13,74068.8,13.05,4.11,4.37,0,*4E
1529154385.13,32761,18.06,74066.3,13.05,4.75,5.05,0,*4D
1529154386.32,32762,18.13,74068.5,13.03,4.81,5.15,0,*42
1529154387.53,32763,18.06,74066.5,13.05,5.19,5.41,0,*44
1529154388.79,32764,18.06,74064.5,13.05,5.51,5.73,0,*4E
1529154389.98,32765,18.06,74068.8,13.07,5.27,5.45,0,*49
1529154391.19,32766,18.06,74068.3,13.07,5.63,5.85,0,*46
1529154392.4,32767,18.13,74068.8,13.07,5.63,5.89,0,*4B
1529154393.65,32768,18.06,74066.3,13.09,5.77,5.93,0,*44
1529154394.88,32769,18.06,74068.3,13.09,5.29,5.55,0,*44
1529154396.08,32770,18.13,74070.8,13.11,4.89,5.23,0,*4F
1529154397.29,32771,18.13,74068.0,13.11,4.71,4.81,0,*40
1529154398.49,32772,18.06,74070.5,13.11,4.57,4.67,0,*4F
1529154399.68,32773,18.06,74066.0,13.11,4.23,4.33,0,*4C
1529154400.9,32774,18.06,74066.5,13.07,3.75,3.93,0,*45
1529154402.12,32775,18.13,74072.5,13.09,4.37,4.57,0,*44
1529154403.36,32776,18.13,74070.3,13.07,4.63,4.93,0,*40
1529154404.54,32777,18.13,74068.5,13.07,4.15,4.45,0,*4B
1529154405.75,32778,18.13,74070.8,13.07,4.49,4.75,0,*4E
1529154406.94,32779,18.06,74068.3,13.07,4.23,4.45,0,*40
1529154408.13,32780,18.13,74070.5,13.07,4.27,4.45,0,*42
1529154409.37,32781,18.13,74068.3,13.05,4.53,4.75,0,*41
1529154410.59,32782,18.06,74068.0,13.05,4.15,4.33,0,*42
1529154411.81,32783,18.13,74068.8,13.05,4.15,4.37,0,*47
1529154413.05,32784,18.13,74068.8,13.05,4.93,5.07,0,*4C
1529154414.27,32785,18.13,74068.0,13.03,4.31,4.57,0,*47
1529154415.49,32786,18.06,74068.3,13.05,4.11,4.33,0,*42
1529154416.7,32787,18.13,74070.5,13.03,3.97,4.07,0,*4B
1529154417.91,32788,18.06,74064.0,13.05,4.27,4.45,0,*48
1529154419.13,32789,18.13,74068.5,13.05,4.23,4.45,0,*4D
1529154420.31,32790,18.13,74070.0,13.03,4.41,4.49,0,*4B
1529154421.55,32791,18.06,74064.5,13.01,4.31,4.45,0,*43
1529154422.77,32792,18.06,74064.0,13.01,4.89,5.11,0,*43
1529154424.01,32793,18.13,74068.8,13.01,3.93,4.05,0,*4A
1529154425.24,32794,18.13,74066.3,13.01,3.97,4.07,0,*4B
1529154426.5,32795,18.13,74070.0,13.01,3.45,3.71,0,*43
1529154427.71,32796,18.13,74068.0,12.99,3.55,3.71,0,*41
1529154428.9,32797,18.06,74066.8,12.95,3.89,4.15,0,*48
1529154430.14,32798,18.13,74068.0,12.97,4.49,4.75,0,*48
1529154431.35,32799,18.13,74068.8,12.97,4.11,4.33,0,*46
1529154432.57,32800,18.13,74070.3,12.95,3.93,4.05,0,*43
1529154433.78,32801,18.13,74068.8,12.95,3.93,4.05,0,*42
1529154434.99,32802,18.13,74068.5,12.95,4.59,4.85,0,*48
1529154436.2,32803,18.06,74066.5,12.95,4.85,5.05,0,*41
1529154437.4,32804,18.13,74068.8,12.91,4.45,4.57,0,*48
1529154438.63,32805,18.13,74068.8,12.91,4.57,4.79,0,*46
1529154439.89,32806,18.13,74070.0,12.91,4.79,5.01,0,*47
1529154441.08,32807,18.13,74070.8,12.89,4.27,4.53,0,*42
1529154442.29,32808,18.13,74070.0,12.89,4.45,4.59,0,*43
1529154443.52,32809,18.13,74068.8,12.91,4.89,5.05,0,*43
1529154444.75,32810,18.13,74072.0,12.91,4.49,4.71,0,*45
1529154445.96,32811,18.06,74064.5,12.91,4.45,4.57,0,*4C
1529154447.15,32812,18.13,74068.0,12.89,4.27,4.45,0,*41
1529154448.37,32813,18.13,74070.3,12.87,4.67,4.89,0,*4A
1529154449.55,32814,18.13,74070.3,12.85,4.53,4.81,0,*40
1529154450.74,32815,18.13,74068.0,12.89,4.19,4.33,0,*4A
1529154451.97,32816,18.13,74068.5,12.87,4.53,4.75,0,*4B
1529154453.18,32817,18.13,74070.8,12.85,4.41,4.59,0,*45
1529154454.38,32818,18.13,74068.3,12.85,4.71,4.81,0,*4C
1529154455.58,32819,18.13,74068.5,12.85,4.63,4.81,0,*4E
1529154456.79,32820,18.13,74068.8,12.85,4.85,5.05,0,*41
1529154457.99,32821,18.13,74070.3,12.85,4.71,4.81,0,*46
1529154459.2,32822,18.13,74070.3,12.85,4.71,4.85,0,*41
1529154460.46,32823,18.13,74066.8,12.83,4.93,5.05,0,*43
1529154461.65,32824,18.06,74066.8,12.81,4.15,4.23,0,*4D
1529154462.85,32825,18.13,74068.5,12.83,4.23,4.27,0,*4F
1529154464.06,32826,18.13,74066.5,12.81,4.23,4.31,0,*49
1529154465.24,32827,18.13,74068.5,12.81,4.19,4.23,0,*42
1529154466.45,32828,18.13,74068.0,12.81,4.31,4.23,0,*47
1529154467.63,32829,18.13,74068.8,12.77,4.33,4.33,0,*4C
1529154468.86,32830,18.13,74070.8,12.79,4.67,4.85,0,*46
1529154470.05,32831,18.13,74068.0,12.77,4.27,4.37,0,*44
1529154471.25,32832,18.13,74070.0,12.79,4.19,4.23,0,*41
1529154472.49,32833,18.13,74070.5,12.79,5.01,5.23,0,*49
1529154473.73,32834,18.13,74066.8,12.77,4.59,4.75,0,*4E
1529154474.97,32835,18.13,74068.3,12.79,4.85,4.97,0,*4C
1529154476.17,32836,18.13,74064.5,12.77,4.59,4.81,0,*47
1529154477.38,32837,18.13,74064.5,12.77,4.85,4.93,0,*44
1529154478.62,32838,18.13,74066.5,12.79,4.97,5.11,0,*4D
1529154479.85,32839,18.13,74064.3,12.79,5.37,5.55,0,*47
1529154481.08,32840,18.13,74070.8,12.79,4.79,4.89,0,*42
1529154482.25,32841,18.13,74064.8,12.77,5.29,5.41,0,*4C
1529154483.43,32842,18.13,74066.0,12.77,5.11,5.29,0,*4A
1529154484.63,32843,18.13,74068.5,12.77,5.45,5.51,0,*45
1529154485.86,32844,18.13,74068.5,12.77,5.73,5.89,0,*42
1529154487.06,32845,18.13,74070.5,12.79,5.11,5.33,0,*48
1529154488.24,32846,18.13,74070.3,12.81,5.23,5.37,0,*49
1529154489.42,32847,18.13,74068.3,12.81,5.37,5.49,0,*44
1529154490.6,32848,18.06,74060.5,12.81,5.15,5.33,0,*46
1529154491.81,32849,18.13,74068.5,12.81,4.75,4.89,0,*40
1529154493.04,32850,18.13,74064.0,12.79,4.31,4.41,0,*4B
1529154494.25,32851,18.13,74068.8,12.77,4.75,4.85,0,*4C
1529154495.46,32852,18.13,74066.5,12.79,4.89,4.89,0,*4E
1529154496.64,32853,18.13,74066.3,12.77,5.11,5.19,0,*49
1529154497.84,32854,18.13,74066.8,12.77,5.27,5.45,0,*42
1529154499.04,32855,18.13,74070.5,12.79,5.71,5.95,0,*43
1529154500.3,32856,18.13,74064.0,12.79,5.73,5.81,0,*47
1529154501.51,32857,18.13,74070.3,12.79,5.95,6.03,0,*47
1529154502.73,32858,18.13,74064.8,12.79,5.95,6.13,0,*49
1529154503.94,32859,18.13,74066.0,12.81,5.95,6.13,0,*4F
1529154505.18,32860,18.13,74070.0,12.81,6.35,6.51,0,*4A
1529154506.39,32861,18.13,74068.5,12.81,5.95,6.13,0,*44
1529154507.59,32862,18.13,74068.0,12.83,5.37,5.41,0,*49
1529154508.79,32863,18.13,74068.5,12.81,5.23,5.27,0,*4F
1529154510.03,32864,18.13,74066.8,12.81,4.75,4.79,0,*40
1529154511.26,32865,18.13,74066.0,12.81,4.97,5.05,0,*47
1529154512.44,32866,18.13,74064.5,12.81,5.45,5.49,0,*42
1529154513.64,32867,18.13,74068.5,12.81,5.71,5.81,0,*40
1529154514.87,32868,18.13,74066.8,12.79,5.95,6.13,0,*4A
1529154516.07,32869,18.13,74068.8,12.81,5.67,5.73,0,*44
1529154517.3,32870,18.13,74070.0,12.79,6.07,6.17,0,*4F
1529154518.48,32871,18.13,74070.8,12.81,5.71,5.71,0,*48
1529154519.68,32872,18.13,74068.8,12.81,5.49,5.55,0,*46
1529154520.87,32873,18.13,74068.5,12.77,5.11,5.19,0,*4B